{"data":{"norad_id":58781,"epoch":"2026-05-24T22:46:11.540352Z","epoch_age_seconds":79437,"freshness":"FRESH","line1":"1 58781U 24011S   26144.94874468  .00000318  00000+0  22870-4 0  9998","line2":"2 58781  53.1610  19.6107 0001102  92.1665 267.9462 15.30194273131943","mean_motion":15.30194273,"eccentricity":0.0001102,"inclination_deg":53.161,"raan_deg":19.6107,"arg_perigee_deg":92.1665,"mean_anomaly_deg":267.9462,"bstar":2.287e-5,"rev_number":13194,"period_min":94.105697910948,"perigee_km":474.4769279799,"apogee_km":475.98741054481,"semimajor_km":6853.3691692624,"source":"CELESTRAK","updated_at":"2026-05-25T13:38:18.747267Z"}}